When you browse on this site, cookies collect data to enhance your experience and personalize the content and advertising you see.
Visit our Privacy Policy to learn more. By continuing to use the site, you agree to this use of cookies and data.
  • In Latvia
  • List of Countries
  • For 7 days
  • Water Temperature
  • Weather Map
  • Weather Widgets
  • user-avatar
    Login

    Hourly Weather Salzburg

    Today, 7 December, Saturday

    Time Temperature Precipitation Wind Pressure Humidity
    00:00 -3°C° 0 mm 1 mps 623 mmHg 58%
    01:00 -5°C° 0 mm 2 mps 623 mmHg 56%
    02:00 -5°C° 0 mm 2 mps 623 mmHg 57%
    03:00 -5°C° 0 mm 2 mps 622 mmHg 57%
    04:00 -3°C° 0 mm 1 mps 622 mmHg 58%
    05:00 -2°C° 0.1 mm 1 mps 622 mmHg 60%
    06:00 -2°C° 0.1 mm 1 mps 623 mmHg 62%
    07:00 -2°C° 0 mm 1 mps 623 mmHg 63%
    08:00 -1°C° 0 mm 1 mps 623 mmHg 65%
    09:00 0°C° 0 mm 1 mps 624 mmHg 68%
    10:00 +1°C° 0 mm 1 mps 624 mmHg 71%
    11:00 0°C° 0.2 mm 1 mps 624 mmHg 77%
    12:00 0°C° 0.2 mm 1 mps 624 mmHg 83%
    13:00 0°C° 0.2 mm 1 mps 624 mmHg 89%
    14:00 0°C° 0.3 mm 1 mps 624 mmHg 92%
    15:00 0°C° 0.3 mm 1 mps 624 mmHg 94%
    16:00 -1°C° 0.3 mm 1 mps 624 mmHg 97%
    17:00 -1°C° 0.2 mm 1 mps 624 mmHg 97%
    18:00 -1°C° 0.2 mm 1 mps 625 mmHg 97%
    19:00 -1°C° 0.2 mm 1 mps 625 mmHg 97%
    20:00 -1°C° 0 mm 1 mps 626 mmHg 96%
    21:00 -1°C° 0 mm 1 mps 626 mmHg 96%
    22:00 -1°C° 0 mm 1 mps 626 mmHg 96%
    23:00 -1°C° 0 mm 1 mps 625 mmHg 95%

    Tomorrow, 8 December, Sunday

    Time Temperature Precipitation Wind Pressure Humidity
    00:00 -2°C° 0 mm 1 mps 625 mmHg 93%
    01:00 -2°C° 0 mm 1 mps 625 mmHg 92%
    02:00 -2°C° 0 mm 1 mps 624 mmHg 89%
    03:00 -3°C° 0 mm 1 mps 624 mmHg 86%
    04:00 -3°C° 0 mm 1 mps 623 mmHg 83%
    05:00 -3°C° 0 mm 1 mps 623 mmHg 81%
    06:00 -3°C° 0 mm 1 mps 623 mmHg 79%
    07:00 -5°C° 0 mm 2 mps 623 mmHg 76%
    08:00 -2°C° 0 mm 1 mps 624 mmHg 74%
    09:00 -1°C° 0 mm 1 mps 624 mmHg 72%
    10:00 +1°C° 0 mm 1 mps 624 mmHg 70%
    11:00 +1°C° 0 mm 1 mps 624 mmHg 72%
    12:00 +2°C° 0 mm 1 mps 623 mmHg 74%
    13:00 +3°C° 0 mm 1 mps 623 mmHg 76%
    14:00 +2°C° 0 mm 1 mps 622 mmHg 74%
    15:00 +1°C° 0 mm 1 mps 622 mmHg 72%
    16:00 0°C° 0 mm 1 mps 621 mmHg 70%
    17:00 -1°C° 0 mm 1 mps 621 mmHg 69%
    18:00 -3°C° 0 mm 2 mps 621 mmHg 68%
    19:00 -4°C° 0 mm 2 mps 621 mmHg 66%
    20:00 -4°C° 0 mm 2 mps 620 mmHg 66%
    21:00 -4°C° 0 mm 2 mps 620 mmHg 65%
    22:00 -1°C° 0 mm 1 mps 620 mmHg 64%
    23:00 -3°C° 0 mm 2 mps 620 mmHg 65%

    Day after tomorrow, 9 December, Monday

    Time Temperature Precipitation Wind Pressure Humidity
    00:00 -3°C° 0 mm 2 mps 619 mmHg 65%
    01:00 -3°C° 0 mm 2 mps 619 mmHg 66%
    02:00 -3°C° 0 mm 2 mps 618 mmHg 67%
    03:00 -3°C° 0 mm 2 mps 618 mmHg 68%
    04:00 -1°C° 0 mm 1 mps 618 mmHg 70%
    05:00 -1°C° 0.1 mm 1 mps 618 mmHg 76%
    06:00 -4°C° 0.1 mm 2 mps 618 mmHg 82%
    07:00 -4°C° 0.1 mm 2 mps 618 mmHg 88%
    08:00 -2°C° 0.4 mm 1 mps 618 mmHg 89%
    09:00 -1°C° 0.4 mm 1 mps 618 mmHg 90%
    10:00 -1°C° 0.4 mm 1 mps 618 mmHg 91%
    11:00 -1°C° 0 mm 1 mps 618 mmHg 89%
    12:00 0°C° 0 mm 1 mps 617 mmHg 88%
    13:00 0°C° 0 mm 1 mps 617 mmHg 86%
    14:00 -1°C° 0 mm 1 mps 617 mmHg 88%
    15:00 -2°C° 0 mm 0 mps 616 mmHg 90%
    16:00 -3°C° 0 mm 0 mps 616 mmHg 91%
    17:00 -2°C° 0.2 mm 1 mps 616 mmHg 93%
    18:00 -3°C° 0.2 mm 1 mps 617 mmHg 94%
    19:00 -3°C° 0.2 mm 1 mps 617 mmHg 95%
    20:00 -3°C° 0.6 mm 1 mps 618 mmHg 94%
    21:00 -5°C° 0.6 mm 2 mps 619 mmHg 93%
    22:00 -5°C° 0.6 mm 2 mps 619 mmHg 92%
    23:00 -6°C° 0.1 mm 2 mps 619 mmHg 93%

    10 December, Tuesday

    Time Temperature Precipitation Wind Pressure Humidity
    00:00 -7°C° 0.1 mm 2 mps 620 mmHg 93%
    01:00 -8°C° 0.1 mm 2 mps 620 mmHg 93%
    02:00 -7°C° 0.5 mm 2 mps 620 mmHg 94%
    03:00 -7°C° 0.5 mm 2 mps 621 mmHg 95%
    04:00 -7°C° 0.5 mm 2 mps 621 mmHg 96%
    05:00 -7°C° 0.8 mm 2 mps 622 mmHg 96%
    06:00 -8°C° 0.8 mm 3 mps 623 mmHg 96%
    07:00 -8°C° 0.8 mm 3 mps 624 mmHg 96%
    08:00 -8°C° 0.4 mm 3 mps 624 mmHg 93%
    09:00 -8°C° 0.4 mm 3 mps 625 mmHg 90%
    10:00 -8°C° 0.4 mm 3 mps 625 mmHg 87%
    11:00 -8°C° 0.1 mm 3 mps 625 mmHg 85%
    12:00 -8°C° 0.1 mm 3 mps 626 mmHg 83%
    13:00 -8°C° 0.1 mm 3 mps 626 mmHg 81%
    14:00 -8°C° 0.1 mm 2 mps 626 mmHg 84%
    15:00 -8°C° 0.1 mm 2 mps 626 mmHg 88%
    16:00 -8°C° 0.1 mm 1 mps 625 mmHg 92%
    17:00 -9°C° 0 mm 1 mps 625 mmHg 92%
    18:00 -10°C° 0 mm 1 mps 625 mmHg 92%
    19:00 -10°C° 0 mm 1 mps 625 mmHg 91%
    20:00 -11°C° 0 mm 1 mps 625 mmHg 88%
    21:00 -11°C° 0 mm 1 mps 624 mmHg 85%
    22:00 -11°C° 0 mm 1 mps 624 mmHg 82%
    23:00 -11°C° 0 mm 1 mps 624 mmHg 77%

    11 December, Wednesday

    Time Temperature Precipitation Wind Pressure Humidity
    00:00 -13°C° 0 mm 2 mps 623 mmHg 73%
    01:00 -13°C° 0 mm 2 mps 623 mmHg 68%
    02:00 -13°C° 0 mm 2 mps 623 mmHg 63%
    03:00 -13°C° 0 mm 2 mps 622 mmHg 58%
    04:00 -12°C° 0 mm 2 mps 622 mmHg 53%
    05:00 -12°C° 0 mm 2 mps 622 mmHg 50%
    06:00 -10°C° 0 mm 2 mps 622 mmHg 47%
    07:00 -10°C° 0 mm 2 mps 622 mmHg 44%
    08:00 -7°C° 0 mm 1 mps 622 mmHg 47%
    09:00 -4°C° 0 mm 1 mps 622 mmHg 49%
    10:00 -3°C° 0 mm 1 mps 623 mmHg 52%
    11:00 -2°C° 0 mm 1 mps 623 mmHg 56%
    12:00 -2°C° 0 mm 0 mps 622 mmHg 61%
    13:00 -1°C° 0 mm 0 mps 622 mmHg 65%
    14:00 -2°C° 0 mm 0 mps 621 mmHg 64%
    15:00 -3°C° 0 mm 0 mps 621 mmHg 63%
    16:00 -5°C° 0 mm 0 mps 620 mmHg 62%
    17:00 -5°C° 0 mm 0 mps 620 mmHg 62%
    18:00 -5°C° 0 mm 0 mps 620 mmHg 62%
    19:00 -6°C° 0 mm 1 mps 620 mmHg 62%
    20:00 -5°C° 0.1 mm 0 mps 620 mmHg 67%
    21:00 -5°C° 0.1 mm 0 mps 620 mmHg 72%
    22:00 -5°C° 0.1 mm 0 mps 620 mmHg 77%
    23:00 -5°C° 0.3 mm 0 mps 620 mmHg 82%

    12 December, Thursday

    Time Temperature Precipitation Wind Pressure Humidity
    00:00 -5°C° 0.3 mm 0 mps 619 mmHg 87%
    01:00 -5°C° 0.3 mm 0 mps 619 mmHg 91%
    02:00 -5°C° 0.5 mm 0 mps 619 mmHg 93%
    03:00 -5°C° 0.5 mm 0 mps 619 mmHg 95%
    04:00 -5°C° 0.5 mm 0 mps 619 mmHg 97%
    05:00 -5°C° 0.3 mm 0 mps 619 mmHg 97%
    06:00 -6°C° 0.3 mm 1 mps 618 mmHg 97%
    07:00 -6°C° 0.3 mm 1 mps 618 mmHg 96%
    08:00 -6°C° 0.3 mm 1 mps 619 mmHg 96%
    09:00 -4°C° 0.3 mm 1 mps 619 mmHg 95%
    10:00 -4°C° 0.3 mm 1 mps 620 mmHg 95%
    11:00 -6°C° 0.3 mm 2 mps 619 mmHg 92%
    12:00 -5°C° 0.3 mm 2 mps 619 mmHg 89%
    13:00 -5°C° 0.3 mm 2 mps 619 mmHg 86%
    14:00 -6°C° 0.2 mm 2 mps 619 mmHg 88%
    15:00 -6°C° 0.2 mm 1 mps 619 mmHg 90%
    16:00 -7°C° 0.2 mm 1 mps 619 mmHg 93%
    17:00 -8°C° 0 mm 1 mps 619 mmHg 91%
    18:00 -9°C° 0 mm 1 mps 619 mmHg 90%
    19:00 -10°C° 0 mm 1 mps 619 mmHg 89%
    20:00 -10°C° 0 mm 1 mps 618 mmHg 87%
    21:00 -10°C° 0 mm 1 mps 618 mmHg 84%
    22:00 -10°C° 0 mm 2 mps 618 mmHg 82%
    23:00 -10°C° 0 mm 2 mps 618 mmHg 80%
    Show more